Find STARLINK-37707

NORAD ID: 799500912 Int'l Des: 2026-127U Constellation: starlink operational

現在のビュー

3D地球を読み込み中...

STARLINK-37707について

説明を読み込み中...

次回通過

Passes for default location (London). Set your location on the main map for personalized predictions.

高度履歴

Loading altitude history...

軌道要素

1 99999C 2026127U 26159.87826389 .00976870 00000-0 980980-4 0 1592
2 99999 53.1617 305.0734 0008914 291.4375 186.1238 16.09748631 10
Epoch: Jun 8, 2026 • Age: 5 hours